This is the latest recevied weather packets stored in our database for station/object HK6REC-25. If no packets are shown the sender has not sent any weather packets the latest 1 day(s).
| Time | Temp. | Humidity | Pressure | Rain* | Wind** | Luminosity | Snow |
|---|---|---|---|---|---|---|---|
| 1778099741 | 21.67° C | 74% | 1009 hPa | 0 mm | - | - | - |
| 1778097940 | 21.11° C | 69% | 1009 hPa | 0 mm | - | - | - |
| 1778096139 | 22.22° C | 69% | 1009 hPa | 0 mm | - | - | - |
| 1778092536 | 23.89° C | 72% | 1010 hPa | 0 mm | - | - | - |
| 1778090735 | 25° C | 72% | 1011 hPa | 0 mm | - | - | - |
| 1778088934 | 26.11° C | 72% | 1011 hPa | 0 mm | - | - | - |
| 1778087133 | 27.22° C | 72% | 1012 hPa | 0 mm | - | - | - |
| 1778085332 | 22.78° C | 69% | 1012 hPa | 0 mm | - | - | - |
| 1778083531 | 23.89° C | 69% | 1014 hPa | 0 mm | - | - | - |
| 1778081730 | 25° C | 69% | 1013 hPa | 0 mm | - | - | - |
| 1778079929 | 20.56° C | 80% | 1015 hPa | 0 mm | - | - | - |
| 1778078128 | 16.67° C | 85% | 1015 hPa | 0 mm | - | - | - |
| 1778076327 | 17.78° C | 85% | 1016 hPa | 0 mm | - | - | - |
| 1778058316 | 14.44° C | 95% | 1014 hPa | 0 mm | - | - | - |
| 1778054714 | 13.33° C | 94% | 1014 hPa | 0 mm | - | - | - |
| 1778052913 | 14.44° C | 94% | 1014 hPa | 0 mm | - | - | - |
| 1778051112 | 15.56° C | 94% | 1015 hPa | 0 mm | - | - | - |
| 1778049311 | 13.33° C | 94% | 1015 hPa | 0 mm | - | - | - |
| 1778045708 | 15.56° C | 94% | 1015 hPa | 0 mm | - | - | - |
| 1778038504 | 15.56° C | 94% | 1015 hPa | 0 mm | - | - | - |
| 1778036703 | 14.44° C | 92% | 1016 hPa | 0 mm | - | - | - |
| 1778034902 | 15.56° C | 92% | 1015 hPa | 0 mm | - | - | - |
| 1778031299 | 15° C | 88% | 1014 hPa | 0 mm | - | - | - |
| 1778029498 | 14.44° C | 91% | 1014 hPa | 0 mm | - | - | - |
| 1778027697 | 14.44° C | 88% | 1013 hPa | 0 mm | - | - | - |
* Rain latest hour (hover to see other rain measurements)
** Current wind speed in m/s (hover to see current wind gust speed)